This demonstration page uses our WeatherBlox Daily Observations layout. Learn more.

Left ArrowRight Arrow

34.02893, -84.19858

Hourly Observations for December 2, 2021

Temp ( °F °C ) Dew Point ( °F °C ) Humidity (%) Winds ( mph kmh ) Pressure ( in mb ) Visibility ( mi km ) Precip ( " mm )
12:53 am 00:53 Cloudy 52 11.1 41 5 66 66 S 5 7 30.11 1020 10 16 0.00 0.00
1:53 am 01:53 Clear 48 8.9 39 3.9 71 71 SSW 6 9 30.09 1019 10 16 0.00 0.00
2:53 am 02:53 Clear 47 8.3 39 3.9 74 74 WSW 3 6 30.10 1019 10 16 0.00 0.00
3:53 am 03:53 Clear 45 7.2 38 3.3 77 77 Calm 30.09 1019 10 16 0.00 0.00
4:53 am 04:53 Clear 43 6.1 38 3.3 82 82 Calm 30.10 1019 10 16 0.00 0.00
5:53 am 05:53 Clear 41 5 37 2.8 86 86 Calm 30.10 1019 10 16 0.00 0.00
6:53 am 06:53 Clear 43 6.1 38 3.3 82 82 W 3 6 30.11 1020 10 16 0.00 0.00
7:53 am 07:53 Sunny 45 7.2 40 4.4 83 83 WSW 5 7 30.13 1020 10 16 0.00 0.00
8:53 am 08:53 Sunny 52 11.1 45 7.2 77 77 WSW 5 7 30.14 1021 10 16 0.00 0.00
9:53 am 09:53 Sunny 58 14.4 47 8.3 67 67 WSW 7 11 30.14 1021 10 16 0.00 0.00
10:53 am 10:53 Sunny 63 17.2 49 9.4 60 60 WSW 7 11 30.12 1020 10 16 0.00 0.00
11:53 am 11:53 Sunny 65 18.3 50 10 59 59 WNW 6 9 30.10 1019 10 16 0.00 0.00
12:53 pm 12:53 Sunny 68 20 49 9.4 51 51 W 8 13 30.07 1018 10 16 0.00 0.00
1:53 pm 13:53 Sunny 71 21.7 46 7.8 41 41 WNW 12 19 30.05 1018 10 16 0.00 0.00
2:53 pm 14:53 Sunny 71 21.7 45 7.2 39 39 WNW 12 19 30.05 1018 10 16 0.00 0.00
3:53 pm 15:53 Sunny 70 21.1 46 7.8 42 42 W 13 20 30.05 1018 10 16 0.00 0.00
4:53 pm 16:53 Sunny 69 20.6 44 6.7 41 41 W 7 11 30.05 1018 10 16 0.00 0.00
5:53 pm 17:53 Clear 64 17.8 44 6.7 48 48 W 5 7 30.07 1018 10 16 0.00 0.00
6:53 pm 18:53 Clear 62 16.7 44 6.7 52 52 W 5 7 30.07 1018 10 16 0.00 0.00
7:53 pm 19:53 Clear 54 12.2 44 6.7 69 69 Calm 30.09 1019 10 16 0.00 0.00
8:53 pm 20:53 Clear 50 10 44 6.7 80 80 Calm 30.09 1019 10 16 0.00 0.00
9:53 pm 21:53 Clear 48 8.9 43 6.1 83 83 Calm 30.09 1019 10 16 0.00 0.00
10:53 pm 22:53 Clear 46 7.8 42 5.6 86 86 Calm 30.09 1019 10 16 0.00 0.00
11:53 pm 23:53 Clear 50 10 44 6.7 80 80 SSW 3 6 30.08 1019 10 16 0.00 0.00

Powered by AerisWeather